Waarnemingen

Advertentie
Mijn weer
Milano/Malpensa, Italië (16066): temperatuur & dauwpunt: 06.12.2017 20:00:00 - 12.12.2017 20:00:00 (CET)Milano/Malpensa, Italië (16066): windsnelheid: 06.12.2017 20:00:00 - 12.12.2017 20:00:00 (CET)Milano/Malpensa, Italië (16066): windrichting: 06.12.2017 20:00:00 - 12.12.2017 20:00:00 (CET)Milano/Malpensa, Italië (16066): luchtdruk: 06.12.2017 20:00:00 - 12.12.2017 20:00:00 (CET)Milano/Malpensa, Italië (16066): zicht: 06.12.2017 20:00:00 - 12.12.2017 20:00:00 (CET)Milano/Malpensa, Italië (16066): neerslag: 06.12.2017 20:00:00 - 12.12.2017 20:00:00 (CET)
Datum & Tijd tt [°C] td [°C] ff [km/u] ff [kn] dd ppp [hPa] vv [km] rr [mm]
12.12.2017 20:00:00 3,0 3,0 9 5 N - 4,0 -
12.12.2017 19:00:00 2,7 2,7 9 5 N 1012,3 4,0 -
12.12.2017 18:00:00 3,0 3,0 4 2 - - 4,0 -
12.12.2017 17:00:00 4,0 4,0 2 1 - - 4,0 -
12.12.2017 16:00:00 5,8 5,2 4 2 - 1010,6 4,0 0,0
12.12.2017 15:00:00 5,0 5,0 4 2 - - 3,5 -
12.12.2017 14:00:00 4,0 4,0 5 3 ZZW - 3,5 -
12.12.2017 13:00:00 4,5 4,5 2 1 - 1008,8 4,0 -
12.12.2017 12:00:00 3,0 3,0 2 1 - - 8 -
12.12.2017 11:00:00 2,0 2,0 5 3 NO - 0,3 -
12.12.2017 10:00:00 0,7 0,7 5 3 O 1008,0 0,7 0,0
12.12.2017 09:00:00 2,0 2,0 5 3 N - 0,3 -
12.12.2017 08:00:00 1,0 1,0 4 2 - - 1,0 -
12.12.2017 07:00:00 1,0 1,0 2 1 - 1004,2 4,0 -
12.12.2017 06:00:00 1,0 1,0 2 1 - - 2,0 -
12.12.2017 05:00:00 1,0 1,0 4 2 - - 2,0 -
12.12.2017 04:00:00 0,7 0,7 5 3 ZZW 1001,5 2,0 0,0
12.12.2017 03:00:00 1,0 1,0 4 2 - - 3,0 -
12.12.2017 02:00:00 1,0 1,0 2 1 - - 1,0 -
12.12.2017 01:00:00 0,5 0,5 8 4 ZZW 998,3 1,0 -
12.12.2017 00:00:00 1,0 1,0 9 5 OZO - 1,5 -
11.12.2017 23:00:00 1,0 1,0 5 3 ZZW - 1,5 -
11.12.2017 22:00:00 1,3 1,3 5 3 WNW 994,9 2,0 0,0
11.12.2017 21:00:00 1,0 1,0 8 4 NNO - 2,0 -
11.12.2017 20:00:00 1,0 1,0 2 1 - - 2,0 -
11.12.2017 19:00:00 1,0 1,0 4 2 N 995,6 1,5 -
11.12.2017 18:00:00 1,0 1,0 4 2 - - 2,0 -
11.12.2017 17:00:00 1,0 1,0 8 4 N - 1,5 -
11.12.2017 16:00:00 1,0 1,0 2 1 - 996,7 2,0 0,0
11.12.2017 15:00:00 1,0 1,0 5 3 N - 5 -
11.12.2017 14:00:00 1,0 1,0 9 5 N - 5 -
11.12.2017 13:00:00 0,7 0,7 8 4 NNO 998,2 1,3 -
11.12.2017 12:00:00 - - - - - - - -
11.12.2017 11:00:00 1,0 1,0 5 3 NO - 1,2 -
11.12.2017 10:00:00 0,6 0,6 4 2 N 999,6 1,2 0,0
11.12.2017 09:00:00 0,0 0,0 4 2 - - 1,2 -
11.12.2017 08:00:00 0,0 0,0 2 1 - - 1,5 -
11.12.2017 07:00:00 0,0 0,0 5 3 ZZW 999,9 0,4 -
11.12.2017 06:00:00 0,0 0,0 2 1 - - 1,5 -
11.12.2017 05:00:00 0,0 0,0 2 1 - - 2,0 -
11.12.2017 04:00:00 -0,4 -0,5 5 3 WNW 1002,1 2,0 0,0
11.12.2017 03:00:00 -1,0 -1,0 2 1 - - 2,0 -
11.12.2017 02:00:00 -1,0 -1,0 4 2 W - 4,0 -
11.12.2017 01:00:00 -0,9 -1,4 4 2 - 1003,6 7 -
11.12.2017 00:00:00 -1,0 -1,0 4 2 - - 8 -
10.12.2017 23:00:00 -1,0 -2,0 2 1 - - 6 -
10.12.2017 22:00:00 -1,1 -1,5 5 3 NW 1005,3 6 0,0
10.12.2017 21:00:00 -1,0 -1,0 5 3 WNW - 4,0 -
10.12.2017 20:00:00 -2,0 -2,0 5 3 WZW - 5 -
10.12.2017 19:00:00 -1,5 -2,1 5 3 ZW 1006,3 5 -
10.12.2017 18:00:00 -1,0 -3,0 5 3 ZZO - 5 -
10.12.2017 17:00:00 -1,0 -3,0 5 3 Z - 4,0 -
10.12.2017 16:00:00 1,4 -5,8 11 6 ZZO 1007,5 10 0,0
10.12.2017 15:00:00 3,0 -6,0 8 4 NNO - 10 -
10.12.2017 14:00:00 3,0 -6,0 13 7 N - 10 -
10.12.2017 13:00:00 3,2 -7,3 18 10 NNO 1009,8 10 -
10.12.2017 12:00:00 3,0 -10,0 13 7 NNO - 10 -
10.12.2017 11:00:00 2,0 -11,0 13 7 N - 10 -
10.12.2017 10:00:00 1,6 -10,4 16 9 N 1012,4 10 0,0
10.12.2017 09:00:00 1,0 -11,0 8 4 NNO - 10 -
10.12.2017 08:00:00 1,0 -10,0 13 7 N - 10 -
10.12.2017 07:00:00 -0,4 -8,7 13 7 N 1013,1 10 -
10.12.2017 06:00:00 -2,0 -9,0 9 5 NNO - 10 -
10.12.2017 05:00:00 -4,0 -10,0 13 7 N - 10 -
10.12.2017 04:00:00 -5,6 -11,0 13 7 N 1014,4 10 0,0
10.12.2017 03:00:00 -6,0 -12,0 11 6 NNO - 10 -
10.12.2017 02:00:00 -6,0 -12,0 8 4 N - 10 -
10.12.2017 01:00:00 -4,5 -11,9 4 2 - 1015,8 10 -
10.12.2017 00:00:00 -3,0 -13,0 9 5 N - 10 -
09.12.2017 23:00:00 -2,0 -13,0 11 6 N - 10 -
09.12.2017 22:00:00 -3,0 -13,5 8 4 N 1015,9 10 0,0
09.12.2017 21:00:00 -3,0 -14,0 11 6 N - 10 -
09.12.2017 20:00:00 3,0 -17,0 8 4 NNO - 10 -
09.12.2017 19:00:00 1,0 -15,7 5 3 NNO 1015,6 10 -
09.12.2017 18:00:00 3,0 -16,0 11 6 N - 10 -
09.12.2017 17:00:00 5,0 -17,0 15 8 N - 10 -
09.12.2017 16:00:00 7,1 -18,1 24 13 N 1014,5 10 0,0
09.12.2017 15:00:00 8,0 -18,0 29 16 NNO - 10 -
09.12.2017 14:00:00 9,0 -17,0 24 13 N - 10 -
09.12.2017 13:00:00 8,2 -17,3 21 11 N 1013,9 10 -
09.12.2017 12:00:00 8,0 -15,0 21 11 N - 10 -
09.12.2017 11:00:00 7,0 -13,0 16 9 NNO - 10 -
09.12.2017 10:00:00 6,2 -10,2 18 10 N 1013,9 10 0,0
09.12.2017 09:00:00 3,0 -8,0 16 9 NNO - 10 -
09.12.2017 08:00:00 3,0 -9,0 18 10 NNO - 10 -
09.12.2017 07:00:00 4,2 -9,6 29 16 NNO 1011,7 10 -
09.12.2017 06:00:00 2,0 -8,0 22 12 N - 10 -
09.12.2017 05:00:00 4,0 -9,0 18 10 NNO - 10 -
09.12.2017 04:00:00 5,1 -9,6 26 14 N 1009,5 10 0,0
09.12.2017 03:00:00 6,0 -11,0 28 15 N - 10 -
09.12.2017 02:00:00 5,0 -10,0 24 13 N - 10 -
09.12.2017 01:00:00 5,2 -5,7 13 7 W 1008,7 10 -
09.12.2017 00:00:00 4,0 1,0 11 6 NW - 8 -
08.12.2017 23:00:00 4,0 3,0 4 2 - - 8 -
08.12.2017 22:00:00 5,5 2,9 8 4 WNW 1008,9 7 0,0
08.12.2017 21:00:00 5,0 3,0 13 7 NW - 5 -
08.12.2017 20:00:00 4,0 3,0 11 6 W - 5 -
08.12.2017 19:00:00 2,2 1,4 4 2 - 1009,1 4,0 -
08.12.2017 18:00:00 3,0 2,0 2 1 - - 3,5 -
08.12.2017 17:00:00 6,0 3,0 4 2 Z - 4,0 -
08.12.2017 16:00:00 6,7 3,5 5 3 Z 1010,2 5 0,0
08.12.2017 15:00:00 8,0 4,0 4 2 - - 6 -
08.12.2017 14:00:00 7,0 4,0 2 1 - - 6 -
08.12.2017 13:00:00 7,3 3,6 8 4 ZZO 1013,5 5 -
08.12.2017 12:00:00 7,0 4,0 8 4 ZO - 6 -
08.12.2017 11:00:00 6,0 4,0 8 4 OZO - 6 -
08.12.2017 10:00:00 5,0 3,4 4 2 ONO 1016,7 5 0,0
08.12.2017 09:00:00 4,0 3,0 2 1 - - 6 -
08.12.2017 08:00:00 5,0 3,0 2 1 - - 10 -
08.12.2017 07:00:00 4,6 2,1 4 2 - 1018,3 10 -
08.12.2017 06:00:00 5,0 2,0 4 2 O - 10 -
08.12.2017 05:00:00 5,0 1,0 4 2 - - 10 -
08.12.2017 04:00:00 4,9 0,8 9 5 N 1020,4 10 0,0
08.12.2017 03:00:00 5,0 1,0 4 2 - - 10 -
08.12.2017 02:00:00 5,0 1,0 9 5 N - 10 -
08.12.2017 01:00:00 5,0 1,3 13 7 N 1023,2 10 -
08.12.2017 00:00:00 5,0 2,0 13 7 N - 10 -
07.12.2017 23:00:00 4,0 2,0 9 5 N - 10 -
07.12.2017 22:00:00 2,4 0,9 9 5 N 1025,4 10 0,0
07.12.2017 21:00:00 2,0 1,0 11 6 N - 10 -
07.12.2017 20:00:00 0,0 -1,0 9 5 N - 10 -
07.12.2017 19:00:00 1,8 -0,7 2 1 - 1026,5 10 -
07.12.2017 18:00:00 5,0 1,0 5 3 WZW - 10 -
07.12.2017 17:00:00 6,0 2,0 5 3 ZW - 10 -
07.12.2017 16:00:00 8,1 2,1 8 4 ZZW 1027,2 10 0,0
07.12.2017 15:00:00 9,0 3,0 8 4 N - 10 -
07.12.2017 14:00:00 7,0 2,0 9 5 ZW - 10 -
07.12.2017 13:00:00 8,0 1,3 5 3 WNW 1029,0 10 -
07.12.2017 12:00:00 8,0 1,0 5 3 N - 10 -
07.12.2017 11:00:00 6,0 1,0 8 4 N - 10 -
07.12.2017 10:00:00 5,0 0,0 11 6 NNW - 10 -
07.12.2017 09:00:00 3,0 0,0 16 9 N - 10 -
07.12.2017 08:00:00 3,0 -1,0 16 9 N - 10 -
07.12.2017 07:00:00 2,9 -0,2 11 6 N 1030,1 10 -
07.12.2017 06:00:00 2,0 0,0 13 7 N - 10 -
07.12.2017 05:00:00 2,0 0,0 18 10 N - 10 -
07.12.2017 04:00:00 2,0 0,3 13 7 N 1030,5 10 0,0
07.12.2017 03:00:00 0,0 -2,0 9 5 N - 10 -
07.12.2017 02:00:00 0,0 -1,0 11 6 N - 10 -
07.12.2017 01:00:00 0,3 -1,5 15 8 N 1031,0 10 -
07.12.2017 00:00:00 - - - - - - - -
06.12.2017 23:00:00 -1,0 -3,0 13 7 N - 10 -
06.12.2017 22:00:00 -0,9 -2,7 9 5 N 1031,5 10 0,0
06.12.2017 21:00:00 0,0 -2,0 8 4 NNO - 10 -
06.12.2017 20:00:00 2,0 -1,0 9 5 N - 10 -

tt = temperatuur
td = dauwpunt
ff = windsnelheid
dd = windrichting
ppp = luchtdruk
vv = zicht
rr = neerslag

Weerstations in de omgeving